QPF
1.10 0.78 0.23 0.08 0.02 0.00 0.00 0.00 0.00 0.00 0.00 0.00 0.00 0.00 0.01 0.01 0.05 0.01 0.01 0.02 0.01 0.11 0.01 0.00 0.00 0.00 0.00 0.00 0.00 0.00 0.00 0.00 0.00 0.00 0.00 0.00 0.01 0.01 0.01 0.01 0.00 0.00 0.01
0.97 0.87 0.37 0.13 0.05 0.01 0.01 0.01 0.00 0.01 0.01 0.00 0.01 0.01 0.01 0.00 0.00 0.00 0.00 0.00 0.00 0.13 0.02 0.00 0.00 0.00 0.00 0.00 0.00 0.00 0.00 0.00 0.00 0.00 0.00 0.01 0.02 0.02 0.00 0.00 0.00 0.00 0.01
1.74 1.65 0.49 0.14 0.02 0.01 0.01 0.00 0.01 0.01 0.00 0.00 0.02 0.06 0.01 0.00 0.00 0.00 0.00 0.00 0.01 0.07 0.02 0.10 0.03 0.00 0.00 0.00 0.00 0.00 0.00 0.00 0.00 0.00 0.00 0.00 0.01 0.00 0.00 0.00 0.00 0.00 0.00
0.86 0.67 0.26 0.26 0.15 0.02 0.01 0.01 0.00 0.01 0.01 0.02 0.01 0.05 0.06 0.07 0.03 0.06 0.02 0.01 0.01 0.08 0.03 0.11 0.05 0.00 0.00 0.00 0.00 0.00 0.00 0.00 0.00 0.00 0.00 0.00 0.00 0.00 0.00 0.00 0.00 0.00 0.00
0.45 0.48 0.15 0.15 0.26 0.23 0.06 0.01 0.01 0.01 0.00 0.01 0.02 0.03 0.04 0.09 0.12 0.09 0.03 0.03 0.02 0.05 0.05 0.05 0.06 0.00 0.00 0.00 0.00 0.00 0.01 0.02 0.02 0.00 0.00 0.00 0.00 0.00 0.00 0.00 0.00 0.00 0.00
0.22 0.23 0.08 0.05 0.05 0.17 0.17 0.07 0.02 0.03 0.02 0.00 0.01 0.02 0.05 0.04 0.04 0.05 0.03 0.01 0.04 0.08 0.07 0.05 0.03 0.00 0.00 0.00 0.00 0.01 0.03 0.04 0.03 0.00 0.00 0.00 0.00 0.00 0.00 0.00 0.00 0.00 0.00
0.22 0.20 0.05 0.02 0.00 0.01 0.08 0.15 0.12 0.08 0.05 0.03 0.01 0.00 0.01 0.02 0.03 0.03 0.05 0.03 0.13 0.27 0.08 0.05 0.02 0.00 0.00 0.00 0.00 0.01 0.03 0.03 0.03 0.01 0.00 0.00 0.00 0.00 0.00 0.00 0.00 0.00 0.00
0.16 0.20 0.21 0.13 0.05 0.00 0.00 0.05 0.13 0.11 0.09 0.08 0.02 0.01 0.01 0.01 0.01 0.03 0.03 0.06 0.12 0.27 0.20 0.05 0.01 0.00 0.00 0.00 0.00 0.00 0.00 0.00 0.01 0.00 0.00 0.00 0.00 0.00 0.00 0.00 0.00 0.00 0.00
0.05 0.12 0.16 0.14 0.15 0.07 0.01 0.00 0.03 0.06 0.08 0.08 0.06 0.01 0.00 0.00 0.01 0.01 0.00 0.06 0.12 0.13 0.14 0.02 0.00 0.00 0.00 0.00 0.00 0.00 0.00 0.00 0.00 0.00 0.00 0.00 0.00 0.00 0.00 0.00 0.00 0.00 0.00
0.00 0.01 0.02 0.04 0.09 0.09 0.06 0.00 0.00 0.01 0.04 0.06 0.07 0.02 0.00 0.00 0.02 0.00 0.00 0.00 0.04 0.10 0.11 0.01 0.00 0.00 0.00 0.00 0.00 0.00 0.00 0.00 0.00 0.00 0.00 0.00 0.00 0.00 0.00 0.00 0.00 0.00 0.00
0.00 0.00 0.00 0.00 0.00 0.02 0.04 0.03 0.01 0.01 0.01 0.02 0.03 0.03 0.00 0.00 0.00 0.01 0.01 0.00 0.01 0.03 0.09 0.05 0.00 0.00 0.00 0.00 0.00 0.00 0.00 0.00 0.00 0.00 0.00 0.00 0.00 0.00 0.01 0.01 0.00 0.00 0.00
0.00 0.00 0.00 0.00 0.00 0.00 0.00 0.00 0.03 0.01 0.02 0.06 0.08 0.03 0.00 0.00 0.01 0.03 0.00 0.01 0.04 0.02 0.07 0.02 0.00 0.00 0.00 0.00 0.00 0.00 0.00 0.00 0.00 0.00 0.00 0.00 0.00 0.00 0.01 0.01 0.00 0.00 0.01
0.00 0.00 0.00 0.00 0.00 0.00 0.01 0.00 0.00 0.00 0.00 0.05 0.16 0.23 0.10 0.01 0.00 0.01 0.02 0.03 0.05 0.11 0.12 0.07 0.00 0.00 0.00 0.00 0.00 0.00 0.00 0.00 0.00 0.00 0.00 0.00 0.00 0.00 0.01 0.01 0.00 0.00 0.00
0.00 0.00 0.00 0.00 0.00 0.00 0.00 0.00 0.01 0.01 0.02 0.02 0.08 0.37 0.33 0.11 0.08 0.02 0.02 0.03 0.07 0.32 0.29 0.17 0.01 0.00 0.00 0.00 0.00 0.00 0.00 0.00 0.00 0.00 0.00 0.00 0.00 0.00 0.01 0.00 0.00 0.00 0.00
0.00 0.00 0.00 0.00 0.00 0.00 0.00 0.00 0.01 0.03 0.03 0.03 0.03 0.20 0.34 0.20 0.14 0.02 0.04 0.09 0.04 0.06 0.27 0.24 0.02 0.00 0.00 0.00 0.00 0.00 0.00 0.00 0.00 0.00 0.00 0.00 0.00 0.00 0.00 0.01 0.00 0.00 0.00
0.00 0.00 0.00 0.00 0.00 0.00 0.00 0.00 0.00 0.01 0.03 0.04 0.03 0.05 0.19 0.25 0.15 0.04 0.02 0.08 0.08 0.05 0.28 0.35 0.11 0.01 0.00 0.00 0.00 0.00 0.00 0.00 0.00 0.00 0.00 0.00 0.00 0.00 0.01 0.01 0.01 0.01 0.00
0.00 0.00 0.00 0.00 0.00 0.00 0.00 0.00 0.00 0.00 0.01 0.10 0.11 0.11 0.18 0.28 0.31 0.23 0.12 0.07 0.02 0.02 0.12 0.43 0.29 0.08 0.02 0.00 0.00 0.00 0.00 0.00 0.00 0.00 0.00 0.00 0.00 0.00 0.01 0.01 0.01 0.01 0.01
0.00 0.00 0.00 0.00 0.00 0.00 0.00 0.00 0.00 0.00 0.00 0.00 0.06 0.07 0.18 0.24 0.23 0.35 0.18 0.07 0.00 0.01 0.06 0.34 0.67 0.20 0.06 0.01 0.00 0.00 0.00 0.00 0.00 0.00 0.00 0.00 0.00 0.00 0.00 0.00 0.01 0.01 0.01
0.00 0.00 0.00 0.00 0.00 0.00 0.00 0.00 0.00 0.00 0.00 0.00 0.03 0.11 0.08 0.10 0.15 0.25 0.22 0.10 0.01 0.00 0.01 0.11 0.62 0.72 0.12 0.01 0.00 0.00 0.00 0.00 0.00 0.00 0.00 0.00 0.00 0.00 0.00 0.00 0.00 0.01 0.01
0.00 0.00 0.00 0.00 0.00 0.00 0.00 0.00 0.00 0.00 0.00 0.00 0.00 0.03 0.07 0.04 0.13 0.18 0.31 0.11 0.03 0.02 0.01 0.07 0.33 0.69 0.42 0.08 0.01 0.01 0.01 0.00 0.00 0.00 0.00 0.00 0.00 0.00 0.00 0.00 0.00 0.00 0.00
0.00 0.00 0.00 0.00 0.00 0.00 0.00 0.00 0.00 0.00 0.00 0.00 0.00 0.00 0.02 0.04 0.06 0.21 0.17 0.06 0.00 0.01 0.01 0.01 0.14 0.54 0.56 0.22 0.05 0.02 0.00 0.00 0.00 0.00 0.00 0.00 0.00 0.00 0.00 0.00 0.00 0.00 0.00
0.00 0.00 0.00 0.00 0.00 0.00 0.00 0.00 0.00 0.00 0.00 0.00 0.00 0.00 0.00 0.03 0.05 0.07 0.09 0.07 0.02 0.01 0.01 0.02 0.12 0.38 0.58 0.31 0.09 0.01 0.00 0.00 0.00 0.00 0.00 0.00 0.00 0.00 0.00 0.00 0.00 0.00 0.00
0.00 0.00 0.00 0.00 0.00 0.00 0.00 0.00 0.00 0.00 0.00 0.00 0.00 0.00 0.00 0.01 0.03 0.05 0.05 0.03 0.02 0.01 0.01 0.03 0.12 0.44 0.44 0.32 0.16 0.06 0.02 0.01 0.00 0.00 0.00 0.00 0.00 0.00 0.00 0.00 0.00 0.00 0.00
0.00 0.00 0.00 0.00 0.00 0.00 0.00 0.00 0.00 0.00 0.00 0.00 0.00 0.00 0.00 0.00 0.02 0.04 0.05 0.07 0.08 0.03 0.01 0.01 0.09 0.23 0.37 0.26 0.19 0.12 0.03 0.04 0.06 0.03 0.00 0.00 0.00 0.00 0.00 0.00 0.00 0.00 0.00
0.00 0.00 0.00 0.00 0.00 0.00 0.00 0.00 0.00 0.00 0.00 0.00 0.00 0.00 0.00 0.00 0.01 0.03 0.04 0.05 0.11 0.04 0.02 0.02 0.06 0.04 0.12 0.19 0.24 0.26 0.15 0.08 0.07 0.07 0.04 0.01 0.00 0.00 0.00 0.00 0.00 0.00 0.00
0.00 0.00 0.00 0.00 0.00 0.00 0.00 0.00 0.00 0.00 0.00 0.00 0.00 0.00 0.00 0.00 0.00 0.01 0.02 0.04 0.05 0.06 0.04 0.03 0.03 0.01 0.01 0.07 0.20 0.28 0.26 0.16 0.10 0.08 0.07 0.06 0.03 0.00 0.00 0.00 0.00 0.00 0.00
MSLP
1015.74 1014.67 1014.63 1014.26 1014.19 1014.28 1013.67 1013.62 1013.06 1012.95 1013.11 1013.38 1013.38 1013.50 1013.33 1013.37 1013.66 1013.91 1014.11 1014.65 1015.09 1015.47 1016.04 1016.52 1016.85 1017.12 1017.16 1017.39 1017.62 1017.92 1018.29 1018.43 1018.60 1018.44 1018.82 1019.32 1019.59 1020.06 1020.29 1020.40 1020.49 1020.68 1020.90
1017.26 1015.27 1014.68 1014.37 1014.76 1014.94 1014.43 1013.89 1013.70 1013.32 1013.50 1013.58 1013.68 1013.90 1013.83 1013.87 1014.16 1014.39 1014.64 1015.17 1015.52 1015.74 1016.37 1016.75 1017.10 1017.43 1017.51 1017.78 1018.04 1018.36 1018.64 1018.67 1018.64 1018.92 1019.34 1019.71 1020.02 1020.44 1020.70 1020.88 1020.99 1021.17 1021.43
1016.93 1016.22 1014.55 1014.51 1015.07 1014.83 1014.49 1014.51 1014.16 1013.81 1013.95 1014.07 1014.01 1014.32 1014.28 1014.32 1014.61 1014.96 1015.17 1015.56 1015.90 1016.36 1016.79 1017.09 1017.38 1017.74 1017.84 1018.13 1018.41 1018.70 1018.82 1018.79 1019.19 1019.57 1019.95 1020.42 1020.66 1020.85 1021.08 1021.32 1021.55 1021.73 1021.93
1018.05 1016.44 1015.70 1015.39 1014.72 1014.69 1014.81 1014.89 1014.81 1014.37 1014.35 1014.48 1014.36 1014.62 1014.58 1014.68 1014.97 1015.33 1015.53 1015.89 1016.20 1016.89 1017.35 1017.43 1017.65 1018.08 1018.14 1018.41 1018.64 1018.95 1019.00 1019.18 1019.60 1019.90 1020.35 1020.72 1020.97 1021.33 1021.54 1021.79 1022.06 1022.17 1022.33
1018.24 1017.23 1016.77 1016.01 1015.49 1015.17 1015.08 1015.19 1015.19 1014.88 1014.67 1014.79 1014.74 1014.85 1014.96 1015.09 1015.35 1015.59 1015.89 1016.32 1016.80 1017.18 1017.61 1018.07 1018.14 1018.27 1018.48 1018.55 1018.88 1019.16 1019.34 1019.60 1019.91 1020.20 1020.62 1021.09 1021.42 1021.74 1021.89 1022.20 1022.35 1022.49 1022.65
1018.83 1018.39 1017.80 1016.93 1016.12 1015.85 1015.66 1015.24 1015.36 1015.16 1015.01 1015.14 1015.02 1015.07 1015.16 1015.45 1015.58 1015.99 1016.26 1016.60 1016.93 1017.31 1017.65 1017.97 1018.29 1018.60 1018.68 1018.69 1019.26 1019.48 1019.78 1020.10 1020.29 1020.53 1020.86 1021.26 1021.77 1021.97 1022.21 1022.50 1022.72 1022.81 1023.04
1019.11 1018.69 1017.94 1016.76 1016.39 1016.10 1015.84 1015.72 1015.43 1015.28 1015.44 1015.44 1015.31 1015.27 1015.50 1015.64 1015.90 1016.09 1016.52 1016.93 1017.24 1017.51 1017.97 1018.29 1018.49 1018.75 1018.75 1019.02 1019.60 1019.84 1020.19 1020.50 1020.81 1021.03 1021.32 1021.74 1021.89 1022.33 1022.60 1022.85 1023.04 1023.13 1023.31
1019.39 1019.20 1018.30 1017.34 1016.79 1016.29 1015.91 1015.99 1016.03 1015.64 1015.55 1015.58 1015.50 1015.45 1015.65 1015.89 1016.07 1016.32 1016.66 1017.27 1017.74 1017.78 1018.16 1018.39 1018.77 1018.95 1018.94 1019.32 1019.91 1020.22 1020.42 1020.45 1021.12 1021.46 1021.78 1021.97 1022.05 1022.58 1022.91 1023.13 1023.33 1023.55 1023.64
1019.72 1019.33 1019.22 1017.63 1017.50 1017.33 1016.49 1016.50 1016.35 1016.03 1015.63 1015.44 1015.46 1015.62 1015.68 1015.99 1016.25 1016.51 1016.78 1017.27 1017.52 1018.25 1018.39 1018.64 1018.98 1019.18 1019.18 1019.52 1020.01 1020.31 1020.69 1020.84 1021.09 1021.73 1021.94 1022.04 1022.33 1022.83 1023.27 1023.53 1023.68 1023.92 1024.03
1019.82 1019.16 1018.55 1018.85 1017.95 1018.09 1017.27 1016.60 1016.39 1016.13 1015.64 1015.55 1015.44 1015.53 1015.78 1015.96 1016.20 1016.50 1016.99 1017.36 1017.97 1017.84 1018.45 1018.75 1019.24 1019.35 1019.44 1019.61 1019.96 1020.29 1020.79 1021.02 1021.13 1021.62 1022.05 1021.99 1022.47 1023.01 1023.55 1023.79 1024.00 1024.15 1024.35
1020.08 1019.83 1019.60 1019.29 1018.72 1018.39 1017.60 1016.89 1016.57 1016.61 1016.17 1015.69 1015.57 1015.43 1015.75 1016.05 1016.44 1016.70 1017.07 1017.46 1017.86 1017.86 1018.32 1018.79 1019.27 1019.55 1019.69 1019.68 1019.85 1020.22 1021.05 1021.24 1021.66 1021.71 1021.97 1022.13 1022.46 1023.04 1023.69 1024.03 1024.26 1024.51 1024.71
1020.70 1020.32 1019.82 1019.41 1019.37 1018.68 1018.29 1017.25 1017.11 1016.80 1016.45 1016.13 1015.70 1015.66 1015.66 1016.11 1016.47 1016.80 1017.12 1017.49 1017.73 1018.06 1018.30 1018.84 1019.23 1019.63 1019.88 1019.94 1019.92 1019.99 1020.93 1020.88 1021.49 1021.91 1022.01 1022.22 1022.54 1023.07 1023.76 1024.18 1024.47 1024.72 1024.93
1021.39 1020.99 1020.52 1020.13 1019.78 1019.02 1018.66 1017.86 1017.74 1017.07 1016.69 1016.60 1016.03 1015.64 1015.67 1016.01 1016.41 1016.84 1017.31 1017.80 1018.04 1018.36 1018.57 1018.88 1019.33 1019.64 1019.84 1020.00 1019.99 1020.05 1020.82 1021.14 1021.69 1022.07 1022.31 1022.36 1022.65 1023.19 1023.93 1024.36 1024.65 1024.83 1025.15
1021.88 1021.57 1021.11 1020.60 1020.25 1019.79 1019.29 1018.63 1018.58 1017.29 1017.09 1016.90 1016.46 1015.93 1015.67 1015.79 1016.13 1016.58 1017.09 1017.58 1017.88 1017.90 1018.23 1018.81 1019.19 1019.54 1019.78 1019.81 1019.87 1020.09 1020.70 1021.28 1021.84 1022.22 1022.55 1022.73 1022.86 1023.26 1023.91 1024.35 1024.67 1025.07 1025.39
1022.46 1022.12 1021.69 1021.30 1021.18 1020.68 1020.05 1019.47 1018.36 1017.87 1017.55 1017.35 1016.99 1016.70 1016.16 1015.57 1016.02 1016.31 1016.86 1017.21 1017.51 1017.91 1018.32 1018.61 1019.01 1019.38 1019.62 1019.66 1019.72 1020.16 1020.79 1021.41 1022.03 1022.24 1022.82 1023.06 1023.16 1023.45 1023.99 1024.45 1024.89 1025.19 1025.55
1023.12 1022.68 1022.16 1021.70 1021.49 1021.15 1020.90 1019.89 1018.73 1018.89 1018.29 1017.77 1017.72 1017.52 1016.72 1015.79 1015.88 1016.05 1016.57 1016.90 1017.37 1017.70 1017.98 1018.23 1018.55 1019.01 1019.26 1019.46 1019.77 1020.17 1020.62 1021.39 1022.01 1022.23 1022.89 1023.24 1023.35 1023.64 1024.13 1024.51 1024.95 1025.24 1025.65
1023.95 1023.48 1022.89 1022.42 1021.82 1021.19 1020.92 1020.40 1019.88 1020.30 1018.79 1018.64 1018.27 1017.93 1017.19 1016.42 1015.74 1015.87 1016.21 1016.75 1017.05 1017.48 1017.70 1018.12 1018.56 1019.00 1019.32 1019.44 1019.76 1020.08 1020.44 1021.18 1021.81 1022.35 1022.88 1023.18 1023.52 1023.84 1024.18 1024.60 1025.03 1025.42 1025.82
1024.78 1024.23 1023.75 1023.14 1022.52 1021.57 1021.36 1021.49 1021.26 1020.93 1019.51 1019.34 1018.82 1018.52 1018.04 1017.06 1016.16 1015.76 1016.08 1016.32 1016.77 1017.16 1017.66 1017.99 1018.25 1019.02 1019.42 1019.54 1019.77 1019.92 1020.12 1020.88 1021.71 1022.32 1022.81 1023.07 1023.53 1023.87 1024.26 1024.56 1025.03 1025.45 1025.87
1025.59 1025.12 1024.67 1024.18 1023.55 1023.00 1022.47 1022.16 1021.88 1020.80 1020.41 1020.21 1019.61 1019.47 1018.67 1017.63 1016.82 1015.74 1015.93 1016.17 1016.56 1017.01 1017.48 1018.01 1018.40 1019.02 1019.52 1019.65 1019.72 1019.71 1020.20 1020.87 1021.43 1022.07 1022.64 1023.03 1023.47 1023.96 1024.30 1024.63 1025.02 1025.42 1025.76
1026.36 1025.95 1025.51 1025.00 1024.44 1023.72 1023.25 1022.90 1022.66 1021.92 1021.41 1020.80 1020.12 1019.73 1019.02 1018.24 1017.38 1016.58 1015.93 1015.98 1016.37 1016.94 1017.37 1017.82 1018.46 1018.94 1019.40 1019.45 1019.60 1020.13 1020.31 1020.49 1020.94 1021.59 1022.25 1022.76 1023.30 1023.80 1024.20 1024.50 1024.90 1025.33 1025.72
1027.08 1026.75 1026.29 1025.81 1025.29 1024.73 1023.93 1023.60 1023.10 1022.40 1021.87 1021.25 1020.66 1020.06 1019.46 1018.94 1018.09 1017.23 1016.61 1015.96 1016.13 1016.61 1017.00 1017.58 1018.10 1018.47 1018.83 1019.30 1019.83 1020.75 1021.01 1020.83 1021.08 1021.50 1021.86 1022.40 1023.07 1023.52 1023.92 1024.32 1024.74 1025.25 1025.54
1027.73 1027.36 1026.93 1026.54 1025.94 1025.32 1024.88 1024.40 1023.96 1023.25 1022.50 1021.83 1021.34 1020.57 1020.04 1019.40 1018.72 1017.96 1017.46 1016.67 1016.17 1016.48 1016.82 1017.16 1017.76 1018.19 1017.84 1018.83 1019.87 1020.65 1021.44 1021.47 1021.36 1021.33 1021.63 1021.89 1022.54 1023.06 1023.61 1023.96 1024.36 1024.85 1025.23
1028.27 1027.95 1027.55 1027.11 1026.59 1025.85 1025.17 1024.70 1024.06 1023.56 1022.80 1022.00 1021.55 1021.08 1020.54 1019.95 1019.44 1018.60 1017.84 1017.19 1016.34 1016.34 1016.62 1016.92 1017.42 1017.74 1018.22 1019.00 1019.62 1019.96 1020.96 1021.15 1021.38 1021.51 1021.49 1021.69 1022.11 1022.70 1023.10 1023.49 1023.93 1024.32 1024.79
1028.58 1028.10 1027.78 1027.46 1026.85 1026.15 1025.61 1025.02 1024.46 1024.08 1023.51 1023.01 1022.21 1021.67 1021.02 1020.40 1019.64 1019.10 1018.39 1017.90 1016.86 1016.24 1016.51 1016.68 1017.25 1017.61 1018.18 1018.54 1019.41 1019.84 1019.94 1020.18 1021.05 1021.74 1021.53 1021.52 1021.62 1022.18 1022.58 1023.01 1023.37 1023.65 1024.09
1028.65 1028.35 1028.01 1027.66 1027.19 1026.55 1026.12 1025.44 1024.83 1024.31 1023.90 1023.36 1022.70 1021.84 1021.18 1020.60 1020.09 1019.21 1018.87 1018.22 1017.70 1016.83 1016.30 1016.53 1016.85 1017.17 1017.54 1018.03 1018.57 1019.42 1019.92 1020.33 1020.38 1020.89 1021.15 1021.44 1021.61 1021.54 1021.86 1022.07 1022.52 1022.95 1023.32
1028.76 1028.51 1028.17 1027.85 1027.47 1026.84 1026.35 1025.83 1025.20 1024.54 1023.97 1023.42 1022.91 1022.26 1021.59 1020.94 1020.39 1019.82 1019.29 1018.96 1018.21 1017.45 1016.80 1016.24 1016.52 1016.91 1017.35 1017.74 1018.03 1018.48 1019.04 1019.51 1019.78 1020.02 1020.68 1020.95 1021.15 1021.21 1021.23 1021.41 1021.78 1022.05 1022.44
Thickness
5706 5707 5711 5716 5718 5719 5730 5731 5739 5740 5737 5735 5734 5733 5734 5733 5731 5729 5728 5724 5720 5717 5714 5712 5711 5710 5712 5713 5713 5713 5713 5713 5714 5717 5715 5712 5710 5707 5707 5708 5708 5707 5706
5691 5706 5707 5707 5707 5710 5719 5728 5731 5735 5733 5733 5731 5728 5728 5728 5725 5724 5722 5719 5715 5712 5710 5708 5708 5707 5708 5709 5710 5710 5710 5711 5713 5713 5710 5708 5706 5704 5704 5704 5705 5704 5703
5682 5680 5689 5699 5700 5709 5718 5718 5724 5728 5727 5727 5728 5723 5724 5723 5720 5718 5717 5714 5711 5708 5705 5705 5704 5703 5705 5706 5706 5707 5708 5710 5708 5708 5705 5702 5702 5702 5701 5701 5701 5701 5700
5674 5693 5699 5700 5707 5711 5713 5713 5715 5721 5723 5722 5723 5719 5719 5719 5717 5714 5713 5710 5707 5702 5699 5700 5699 5699 5701 5702 5703 5704 5706 5707 5706 5705 5702 5700 5699 5698 5698 5698 5698 5698 5697
5675 5682 5682 5692 5701 5705 5706 5706 5708 5713 5718 5718 5717 5716 5715 5715 5714 5710 5708 5705 5700 5697 5694 5693 5695 5696 5698 5700 5701 5702 5703 5703 5703 5701 5699 5698 5696 5695 5696 5695 5695 5696 5695
5665 5669 5672 5683 5691 5696 5700 5704 5705 5710 5712 5711 5713 5712 5711 5710 5710 5706 5704 5702 5697 5693 5692 5692 5692 5692 5695 5698 5698 5699 5699 5699 5699 5699 5698 5696 5694 5694 5694 5693 5693 5694 5692
5663 5666 5671 5680 5685 5687 5695 5700 5703 5705 5704 5704 5707 5708 5706 5706 5704 5704 5700 5697 5693 5689 5687 5687 5688 5690 5693 5694 5694 5695 5696 5696 5695 5694 5694 5693 5694 5692 5692 5691 5690 5691 5690
5656 5656 5658 5667 5672 5682 5690 5694 5695 5698 5699 5699 5701 5703 5703 5701 5700 5700 5697 5691 5688 5685 5682 5683 5684 5688 5691 5692 5692 5693 5694 5694 5691 5691 5691 5691 5693 5690 5689 5689 5688 5688 5688
5646 5650 5648 5660 5663 5666 5678 5683 5687 5692 5695 5696 5697 5697 5699 5696 5696 5695 5694 5690 5688 5682 5679 5682 5682 5685 5689 5690 5691 5693 5690 5690 5691 5689 5689 5690 5690 5688 5686 5686 5686 5685 5685
5637 5646 5651 5647 5659 5657 5665 5676 5681 5685 5690 5691 5693 5694 5694 5692 5693 5692 5690 5687 5683 5686 5680 5681 5680 5682 5685 5688 5690 5692 5687 5689 5690 5690 5688 5690 5689 5687 5684 5683 5683 5682 5681
5627 5632 5636 5639 5648 5651 5657 5669 5674 5676 5683 5686 5688 5690 5690 5689 5687 5687 5686 5685 5683 5684 5682 5679 5679 5680 5682 5686 5689 5690 5686 5686 5686 5689 5689 5689 5688 5686 5682 5681 5680 5679 5678
5612 5619 5626 5632 5634 5643 5648 5658 5661 5668 5676 5678 5683 5685 5686 5685 5684 5682 5681 5681 5681 5680 5681 5678 5677 5679 5680 5683 5687 5689 5687 5686 5685 5686 5688 5687 5686 5684 5681 5679 5678 5677 5676
5597 5603 5611 5617 5623 5634 5642 5650 5649 5658 5666 5669 5676 5682 5682 5681 5680 5678 5677 5676 5674 5675 5673 5674 5674 5676 5677 5680 5684 5687 5686 5684 5683 5683 5684 5686 5684 5682 5679 5677 5677 5676 5674
5584 5589 5597 5606 5613 5621 5629 5636 5639 5652 5657 5662 5668 5675 5679 5679 5680 5677 5675 5674 5673 5673 5670 5670 5671 5672 5674 5677 5682 5684 5684 5681 5680 5680 5680 5681 5682 5681 5677 5676 5676 5674 5672
5568 5574 5582 5591 5595 5604 5613 5620 5634 5642 5649 5653 5659 5663 5671 5675 5676 5675 5672 5672 5671 5670 5668 5667 5668 5669 5671 5675 5680 5680 5681 5678 5675 5678 5677 5677 5678 5678 5675 5674 5672 5671 5670
5551 5558 5568 5578 5583 5591 5597 5608 5621 5627 5636 5643 5648 5651 5661 5670 5670 5673 5672 5671 5668 5667 5666 5666 5667 5668 5669 5672 5676 5677 5679 5674 5672 5676 5674 5673 5675 5675 5673 5672 5670 5669 5668
5534 5541 5550 5560 5570 5580 5587 5595 5605 5608 5626 5628 5636 5641 5650 5660 5667 5668 5669 5668 5666 5664 5665 5663 5663 5663 5666 5668 5672 5673 5676 5674 5671 5671 5670 5672 5671 5671 5671 5670 5668 5667 5666
5515 5524 5532 5543 5554 5566 5575 5582 5585 5595 5611 5615 5624 5630 5639 5649 5659 5662 5664 5667 5663 5660 5659 5660 5663 5660 5662 5664 5668 5670 5674 5672 5667 5666 5667 5669 5669 5668 5668 5668 5666 5665 5664
5492 5503 5511 5522 5535 5545 5554 5564 5571 5585 5593 5600 5609 5614 5626 5638 5647 5656 5656 5659 5658 5655 5655 5654 5656 5656 5657 5660 5664 5668 5668 5669 5667 5662 5665 5665 5665 5665 5665 5665 5664 5662 5662
5467 5480 5491 5502 5514 5527 5538 5547 5554 5567 5575 5588 5597 5605 5616 5626 5635 5644 5651 5653 5652 5651 5651 5651 5648 5650 5653 5657 5660 5658 5662 5667 5668 5666 5663 5663 5663 5662 5662 5663 5661 5661 5660
5441 5456 5467 5479 5492 5505 5519 5530 5539 5551 5563 5574 5583 5594 5603 5614 5624 5634 5638 5645 5647 5648 5648 5647 5647 5649 5653 5651 5650 5648 5653 5659 5664 5665 5662 5661 5660 5660 5661 5661 5660 5659 5658
5417 5431 5444 5457 5469 5485 5498 5508 5519 5531 5545 5557 5567 5579 5589 5600 5612 5622 5629 5638 5645 5645 5644 5646 5645 5646 5654 5651 5645 5643 5640 5647 5654 5660 5660 5661 5659 5658 5658 5658 5659 5659 5658
5390 5404 5418 5434 5447 5464 5480 5492 5503 5516 5529 5544 5554 5564 5575 5586 5596 5609 5620 5630 5642 5643 5643 5642 5642 5643 5645 5643 5642 5641 5635 5640 5646 5651 5656 5657 5657 5656 5656 5656 5656 5657 5657
5368 5379 5395 5410 5427 5443 5460 5473 5486 5497 5509 5522 5537 5548 5560 5572 5585 5596 5609 5617 5629 5638 5639 5639 5638 5637 5636 5639 5636 5638 5640 5642 5638 5637 5647 5652 5656 5654 5654 5653 5655 5656 5657
5351 5359 5370 5388 5404 5422 5439 5453 5467 5480 5492 5505 5519 5535 5548 5559 5571 5585 5594 5606 5615 5625 5634 5634 5635 5634 5634 5637 5637 5632 5631 5632 5638 5636 5637 5642 5647 5652 5652 5652 5653 5654 5655
5340 5343 5352 5364 5381 5400 5417 5434 5448 5463 5476 5490 5503 5516 5531 5545 5557 5569 5580 5589 5601 5612 5622 5630 5631 5630 5630 5630 5633 5633 5631 5631 5633 5634 5633 5636 5640 5645 5648 5650 5652 5655 5656